Location: Dalton
(34.7700°N, 84.9700°W)
Time: 23:31:24
(UTC-05:00)

Envisat - Pass Details

Date: 09 October 2017
Orbit: 764 x 766 km, 98.2° (Epoch: 13 December)

Event Time Altitude Azimuth Distance (km) Brightness Sun altitude
Exits shadow 21:44:44 34° 338° (NNW) 1,242 4.3 -31.8°
Drops below altitude 10° 21:47:35 10° 344° (NNW) 2,309 5.8 -32.4°
Sets 21:49:54 0° 346° (NNW) 3,239 6.6 -32.9°
